sat.trackr.live / text

‹ back to catalog

STARLINK-35803

NORAD 66568 · 2025-268M

PAYLOAD ACTIVE UNKNOWN

§ Identity

Operator
Country
US
Launch date
2025-11-21
Launch site
AFETR
Launch vehicle
Mass (kg)
RCS (m²)

Purposes: comms

External: N2YO · Heavens-Above · Gunter

§ Orbital elements

Epoch: 2026-05-25T01:25:34.238784Z

Period
94.27 min
Inclination
42.9992°
Eccentricity
0.0001716
Mean motion
15.27573739 rev/d
Perigee alt
481.9 km
Apogee alt
484.2 km
Semi-major
6,861.2 km
B*
6.3558e-4
RAAN
275.4082°
Arg perigee
289.0234°
Mean anomaly
71.0431°
Rev number
2,964

§ Raw data

STARLINK-358031 66568U 25268M   26145.05942406  .00017266  00000+0  63558-3 0  99932 66568  42.9992 275.4082 0001716 289.0234  71.0431 15.27573739 29645

JSON: /api/v1/satellites/66568 · /tle

For live sub-satellite position, see the globe view (requires WebGL).

§ Visibility from observer

Set your observer location to see the next 7 days of passes ≥ 10°. The values pass through the URL so the page stays shareable.

No JS? Fill the form by hand. The geolocation button needs JavaScript.